FW6610 Weather Reports


time (UTC)temp
C
wind
direction
speed
KPH
gust
KPH
rain 1hr
cm
rain 24hr
cm
rain mn
cm
humidity
%
barometer
mb
20260510000043 9 0 0.0 0.0 0.00 0.99 0.99 97 1011.4
20260509235529 9 0 0.0 0.0 0.00 0.99 0.99 96 1011.5
20260509235029 9 0 0.0 1.6 0.00 0.99 0.99 96 1011.4
20260509234543 9 0 0.0 1.6 0.00 0.99 0.99 96 1011.4
20260509234031 9 0 0.0 1.6 0.00 0.99 0.99 96 1011.5
20260509233527 9 84 0.0 3.2 0.00 0.99 0.99 96 1011.5
20260509233037 9 0 0.0 3.2 0.00 0.99 0.99 96 1011.7
20260509232535 9 354 0.0 3.2 0.00 0.99 0.99 96 1011.7
20260509232030 9 0 0.0 3.2 0.00 0.99 0.99 96 1011.6
20260509231545 9 0 0.0 1.6 0.00 0.99 0.99 96 1011.5
20260509231029 9 0 0.0 1.6 0.00 0.99 0.99 96 1011.5
20260509230529 9 0 0.0 1.6 0.00 0.99 0.99 96 1011.4
20260509230047 9 333 0.0 1.6 0.00 0.99 0.99 96 1011.5
20260509225529 9 0 0.0 0.0 0.00 0.99 0.99 96 1011.5
20260509225029 9 0 0.0 0.0 0.00 0.99 0.99 96 1011.4
20260509224543 9 0 0.0 0.0 0.00 0.99 0.99 96 1011.6
20260509224029 9 0 0.0 0.0 0.00 0.99 0.99 96 1011.4
20260509223529 9 0 0.0 0.0 0.00 0.99 0.99 96 1011.5
20260509223044 9 0 0.0 0.0 0.00 0.99 0.99 96 1011.4
20260509222526 9 0 0.0 0.0 0.03 0.99 0.99 96 1011.3
20260509222026 9 0 0.0 0.0 0.03 0.99 0.99 96 1011.4
20260509221542 8 0 0.0 1.6 0.05 0.99 0.99 96 1011.3
20260509221031 8 0 0.0 1.6 0.05 0.99 0.99 96 1011.5
20260509220531 8 356 0.0 1.6 0.05 0.99 0.99 96 1011.5
20260509220041 8 0 0.0 1.6 0.05 0.99 0.99 96 1011.6
20260509215530 8 346 0.0 1.6 0.08 0.99 0.99 96 1011.3
20260509215029 8 0 0.0 1.6 0.08 0.99 0.99 95 1011.5
20260509214536 8 0 0.0 1.6 0.10 0.99 0.99 95 1011.5
20260509214029 8 0 0.0 0.0 0.10 0.99 0.99 95 1011.5
20260509213530 8 0 0.0 0.0 0.13 0.99 0.99 95 1011.6
20260509213055 8 0 0.0 0.0 0.13 0.99 0.99 95 1011.5
20260509212529 8 0 0.0 0.0 0.13 0.97 0.97 95 1011.7
20260509212029 8 0 0.0 0.0 0.13 0.97 0.97 95 1011.6
20260509211543 8 0 0.0 0.0 0.10 0.94 0.94 95 1011.7
20260509211030 8 0 0.0 1.6 0.13 0.94 0.94 95 1011.8
20260509210530 8 0 0.0 1.6 0.13 0.94 0.94 95 1012.0
20260509210053 8 0 0.0 1.6 0.13 0.94 0.94 95 1011.8
20260509205529 8 0 0.0 1.6 0.13 0.91 0.91 94 1012.1
20260509205027 8 0 0.0 1.6 0.13 0.91 0.91 94 1012.1
20260509204543 8 0 0.0 0.0 0.13 0.89 0.89 94 1012.1
20260509204029 8 0 0.0 0.0 0.13 0.89 0.89 94 1012.1
20260509203526 8 0 0.0 0.0 0.10 0.86 0.86 94 1012.3
20260509203041 8 0 0.0 0.0 0.08 0.84 0.84 94 1012.3
20260509202527 8 0 0.0 1.6 0.10 0.84 0.84 94 1012.4
20260509202030 9 0 0.0 1.6 0.10 0.84 0.84 94 1012.3
20260509201538 8 0 0.0 1.6 0.10 0.84 0.84 94 1012.3
20260509201029 9 0 0.0 0.0 0.08 0.81 0.81 94 1012.4
20260509200529 9 0 0.0 0.0 0.10 0.81 0.81 94 1012.4
20260509200046 9 0 0.0 0.0 0.10 0.81 0.81 94 1012.5
20260509195531 9 0 0.0 1.6 0.08 0.79 0.79 94 1012.6
20260509195029 9 0 0.0 1.6 0.08 0.79 0.79 94 1012.4
20260509194543 9 0 0.0 1.6 0.05 0.76 0.76 94 1012.6
20260509194035 9 0 0.0 1.6 0.05 0.76 0.76 94 1012.5
20260509193532 8 0 0.0 1.6 0.05 0.76 0.76 94 1012.4
20260509193045 8 0 0.0 1.6 0.05 0.76 0.76 94 1012.5
20260509192529 8 0 0.0 0.0 0.03 0.74 0.74 94 1012.5
20260509192029 8 0 0.0 0.0 0.03 0.74 0.74 94 1012.5
20260509191543 8 0 0.0 1.6 0.03 0.74 0.74 94 1012.3
20260509191032 8 0 0.0 1.6 0.03 0.74 0.74 94 1012.6
20260509190529 8 0 0.0 1.6 0.03 0.71 0.71 93 1012.7
20260509190045 8 0 0.0 1.6 0.03 0.71 0.71 93 1012.6
20260509185528 8 296 0.0 1.6 0.03 0.71 0.71 93 1012.4
20260509185028 8 328 0.0 1.6 0.03 0.71 0.71 93 1012.5
20260509184552 8 0 0.0 1.6 0.03 0.71 0.71 93 1012.5
20260509184026 8 0 0.0 1.6 0.03 0.71 0.71 94 1012.4
20260509183526 8 0 0.0 1.6 0.05 0.71 0.71 94 1012.6
20260509183040 8 0 0.0 3.2 0.05 0.71 0.71 94 1012.7
20260509182530 8 333 1.6 3.2 0.08 0.71 0.71 93 1012.6
20260509182030 8 326 1.6 3.2 0.08 0.71 0.71 93 1012.7
20260509181552 8 321 0.0 6.4 0.10 0.71 0.71 93 1013.0
20260509181030 8 0 0.0 6.4 0.10 0.71 0.71 93 1013.0
20260509180526 8 37 1.6 6.4 0.08 0.69 0.69 93 1012.8
20260509180046 8 0 0.0 3.2 0.10 0.69 0.69 93 1013.0
20260509175534 8 0 0.0 1.6 0.10 0.69 0.69 94 1012.9
20260509175027 8 191 0.0 1.6 0.10 0.69 0.69 94 1013.1
20260509174538 7 191 0.0 4.8 0.13 0.69 0.69 94 1013.3
20260509174029 7 0 0.0 4.8 0.13 0.69 0.69 94 1013.2
20260509173525 7 300 0.0 4.8 0.10 0.66 0.66 93 1013.2
20260509173046 7 0 1.6 3.2 0.10 0.66 0.66 93 1013.3
20260509172529 7 0 0.0 3.2 0.10 0.64 0.64 93 1013.3
20260509172029 7 323 0.0 3.2 0.10 0.64 0.64 94 1013.3
20260509171542 7 0 0.0 3.2 0.08 0.61 0.61 93 1013.5
20260509171029 7 0 0.0 1.6 0.08 0.61 0.61 93 1013.6
20260509170529 7 0 0.0 1.6 0.10 0.61 0.61 92 1013.6
20260509170049 7 0 0.0 1.6 0.08 0.58 0.58 92 1013.9
20260509165530 7 255 0.0 1.6 0.08 0.58 0.58 93 1013.9
20260509165029 7 0 0.0 1.6 0.08 0.58 0.58 93 1013.8
20260509164544 7 345 0.0 4.8 0.05 0.56 0.56 93 1013.9
20260509164032 7 0 0.0 4.8 0.05 0.56 0.56 92 1014.0
20260509163529 8 270 0.0 1.6 0.08 0.56 0.56 92 1013.8
20260509163039 8 0 0.0 1.6 0.08 0.56 0.56 92 1013.9
20260509162530 8 0 0.0 1.6 0.05 0.53 0.53 92 1014.0
20260509162029 8 0 0.0 1.6 0.05 0.53 0.53 92 1014.1
20260509161537 7 0 0.0 3.2 0.05 0.53 0.53 93 1014.2
20260509161029 7 0 0.0 3.2 0.05 0.53 0.53 92 1014.2
20260509160532 7 0 0.0 0.0 0.03 0.51 0.51 93 1014.1
20260509160046 7 0 0.0 0.0 0.05 0.51 0.51 92 1014.2
20260509155529 7 0 0.0 1.6 0.05 0.51 0.51 92 1014.2
20260509155032 7 0 0.0 1.6 0.05 0.51 0.51 92 1014.1
20260509154545 7 0 0.0 1.6 0.05 0.51 0.51 92 1014.2
20260509154033 7 0 0.0 3.2 0.05 0.51 0.51 92 1014.0
20260509153529 7 0 0.0 3.2 0.03 0.48 0.48 93 1014.0
20260509153057 7 330 0.0 3.2 0.03 0.48 0.48 92 1014.0
20260509152529 7 331 0.0 3.2 0.05 0.48 0.48 92 1013.9
20260509152029 7 336 0.0 3.2 0.05 0.48 0.48 92 1014.0
20260509151538 7 0 0.0 6.4 0.05 0.48 0.48 93 1013.9
20260509151030 7 0 1.6 6.4 0.05 0.48 0.48 93 1014.0
20260509150529 7 3 1.6 6.4 0.05 0.48 0.48 92 1014.1
20260509150040 7 75 0.0 6.4 0.05 0.46 0.46 94 1014.0
20260509145529 7 354 1.6 6.4 0.05 0.46 0.46 93 1014.1
20260509145030 7 19 0.0 1.6 0.05 0.46 0.46 94 1014.2
20260509144542 7 0 0.0 1.6 0.05 0.46 0.46 94 1014.2
20260509144031 7 0 0.0 3.2 0.05 0.46 0.46 95 1014.3
20260509143531 7 334 0.0 3.2 0.08 0.46 0.46 95 1014.2
20260509143043 6 341 0.0 3.2 0.08 0.46 0.46 95 1014.3
20260509142529 6 277 0.0 3.2 0.05 0.43 0.43 95 1014.3
20260509142029 6 306 0.0 3.2 0.05 0.43 0.43 95 1014.2
20260509141543 6 359 0.0 1.6 0.05 0.43 0.43 95 1014.3
20260509141032 6 328 0.0 1.6 0.05 0.43 0.43 95 1014.3
20260509140530 6 301 0.0 1.6 0.05 0.43 0.43 95 1014.4
20260509140047 6 321 0.0 1.6 0.05 0.41 0.41 95 1014.4
20260509135529 6 333 0.0 1.6 0.05 0.41 0.41 94 1014.5
20260509135029 6 0 0.0 0.0 0.08 0.41 0.41 95 1014.5
20260509134540 6 0 0.0 1.6 0.08 0.41 0.41 95 1014.5
20260509134029 6 0 0.0 1.6 0.08 0.41 0.41 95 1014.6
20260509133530 5 0 0.0 1.6 0.08 0.38 0.38 95 1014.6
20260509133045 5 0 0.0 1.6 0.08 0.38 0.38 95 1014.7
20260509132528 5 0 0.0 1.6 0.08 0.38 0.38 95 1014.7
20260509132030 5 0 0.0 1.6 0.08 0.38 0.38 94 1014.6
20260509131544 5 354 0.0 1.6 0.08 0.38 0.38 94 1014.7
20260509131029 5 0 0.0 1.6 0.08 0.38 0.38 94 1014.7
20260509130531 5 0 0.0 0.0 0.08 0.38 0.38 95 1014.6
20260509130041 5 0 0.0 0.0 0.05 0.36 0.36 95 1014.8
20260509125533 5 0 0.0 0.0 0.05 0.36 0.36 95 1014.7
20260509125029 5 0 0.0 0.0 0.03 0.33 0.33 95 1014.6
20260509124544 5 0 0.0 0.0 0.03 0.33 0.33 95 1014.7
20260509124029 5 0 0.0 0.0 0.03 0.33 0.33 95 1014.7
20260509123529 5 0 0.0 0.0 0.00 0.30 0.30 95 1015.0
20260509123043 5 0 0.0 0.0 0.03 0.30 0.30 95 1014.7
20260509122529 5 0 0.0 0.0 0.03 0.30 0.30 95 1014.6
20260509122029 5 0 0.0 0.0 0.03 0.30 0.30 95 1014.7
20260509121540 4 0 0.0 0.0 0.03 0.30 0.30 95 1014.9
20260509121029 4 0 0.0 0.0 0.03 0.30 0.30 95 1014.9
20260509120529 4 0 0.0 1.6 0.03 0.30 0.30 95 1014.9
20260509120058 4 0 0.0 1.6 0.03 0.30 0.30 95 1015.1
20260509115528 4 327 0.0 0.0 0.05 0.30 0.30 95 1015.0
20260509115029 4 0 0.0 0.0 0.05 0.30 0.30 95 1014.9
20260509114544 4 0 0.0 0.0 0.05 0.30 0.30 94 1015.0
20260509114031 4 0 0.0 1.6 0.05 0.30 0.30 94 1014.9
20260509113529 4 0 0.0 1.6 0.08 0.30 0.30 94 1015.1
20260509113043 3 0 0.0 1.6 0.08 0.28 0.28 94 1015.2
20260509112529 3 0 0.0 0.0 0.08 0.28 0.28 94 1015.1
20260509112029 3 0 0.0 0.0 0.08 0.28 0.28 94 1015.2
20260509111542 3 0 0.0 0.0 0.10 0.28 0.28 94 1015.1
20260509111029 3 0 0.0 0.0 0.13 0.28 0.28 94 1015.3
20260509110527 3 0 0.0 0.0 0.13 0.28 0.28 94 1015.4
20260509110044 3 0 0.0 0.0 0.15 0.28 0.28 94 1015.4
20260509105526 3 0 0.0 0.0 0.13 0.25 0.25 94 1015.4
20260509105026 3 0 0.0 0.0 0.15 0.25 0.25 94 1015.4
20260509104538 3 0 0.0 0.0 0.15 0.25 0.25 94 1015.6
20260509104026 3 0 0.0 0.0 0.15 0.23 0.23 94 1015.5
20260509103526 3 0 0.0 0.0 0.15 0.23 0.23 94 1015.5
20260509103038 3 0 0.0 1.6 0.13 0.20 0.20 94 1015.4
20260509102527 3 0 0.0 1.6 0.15 0.20 0.20 94 1015.5
20260509102029 3 262 0.0 1.6 0.15 0.20 0.20 94 1015.2
20260509101545 3 0 0.0 1.6 0.13 0.18 0.18 94 1015.2
20260509101031 3 0 0.0 1.6 0.13 0.15 0.15 94 1015.0
20260509100529 3 0 0.0 0.0 0.13 0.15 0.15 93 1015.1
20260509100045 3 0 0.0 0.0 0.13 0.13 0.13 93 1014.9
20260509095530 3 0 0.0 0.0 0.13 0.13 0.13 93 1015.2
20260509095026 3 0 0.0 0.0 0.10 0.10 0.10 93 1015.1
20260509094542 3 0 0.0 0.0 0.10 0.10 0.10 93 1015.1
20260509094026 3 0 0.0 0.0 0.08 0.08 0.08 93 1015.2
20260509093526 3 0 0.0 0.0 0.08 0.08 0.08 92 1015.1
20260509093038 3 0 0.0 0.0 0.08 0.08 0.08 92 1014.9
20260509092526 3 0 0.0 0.0 0.05 0.05 0.05 92 1014.8
20260509092026 3 0 0.0 0.0 0.05 0.05 0.05 91 1014.7
20260509091602 3 0 0.0 0.0 0.05 0.05 0.05 91 1014.6
20260509091028 3 0 0.0 0.0 0.03 0.03 0.03 90 1014.8
20260509090525 3 0 0.0 0.0 0.03 0.03 0.03 89 1014.9
20260509090046 3 0 0.0 0.0 0.00 0.00 0.00 88 1014.8
20260509085525 3 0 0.0 0.0 0.00 0.00 0.00 87 1014.9
20260509085025 3 0 0.0 0.0 0.00 0.00 0.00 86 1014.8
20260509084546 3 0 0.0 0.0 0.00 0.00 0.00 86 1014.8
20260509084030 3 0 0.0 0.0 0.00 0.00 0.00 86 1014.8
20260509083526 3 0 0.0 0.0 0.00 0.00 0.00 86 1014.6
20260509083041 3 0 0.0 0.0 0.00 0.00 0.00 86 1014.6
20260509082526 3 0 0.0 0.0 0.00 0.00 0.00 87 1014.4
20260509082026 3 0 0.0 0.0 0.00 0.00 0.00 87 1014.5
20260509081543 3 0 0.0 0.0 0.00 0.00 0.00 87 1014.4
20260509081026 3 0 0.0 0.0 0.00 0.00 0.00 87 1014.2
20260509080526 3 0 0.0 0.0 0.00 0.00 0.00 88 1014.2
20260509080040 3 0 0.0 0.0 0.00 0.00 0.00 89 1014.2
20260509075530 3 0 0.0 0.0 0.00 0.00 0.00 90 1014.3
20260509075026 3 0 0.0 0.0 0.00 0.00 0.00 90 1014.2
20260509074552 3 0 0.0 0.0 0.00 0.00 0.00 90 1014.4
20260509074026 2 0 0.0 0.0 0.00 0.00 0.00 91 1014.3
20260509073526 2 0 0.0 0.0 0.00 0.00 0.00 91 1014.2
20260509073111 2 0 0.0 0.0 0.00 0.00 0.00 91 1014.3
20260509072526 2 0 0.0 0.0 0.00 0.00 0.00 91 1014.5
20260509072029 2 0 0.0 0.0 0.00 0.00 0.00 91 1014.2
20260509071543 2 0 0.0 0.0 0.00 0.00 0.00 91 1014.4
20260509071029 2 0 0.0 0.0 0.00 0.00 0.00 91 1014.3
20260509070526 2 0 0.0 0.0 0.00 0.00 0.00 91 1014.3
20260509070136 2 0 0.0 0.0 0.00 0.00 0.00 91 1014.2
20260509065526 2 0 0.0 0.0 0.00 0.00 0.00 91 1014.3
20260509065026 2 0 0.0 0.0 0.00 0.00 0.00 90 1014.3
20260509064538 2 0 0.0 0.0 0.00 0.00 0.00 90 1014.2
20260509064030 2 0 0.0 0.0 0.00 0.00 0.00 90 1014.1
20260509063526 2 0 0.0 0.0 0.00 0.00 0.00 90 1014.2
20260509063037 2 0 0.0 0.0 0.00 0.00 0.00 90 1014.4
20260509062529 2 0 0.0 0.0 0.00 0.00 0.00 90 1014.4
20260509062030 2 0 0.0 0.0 0.00 0.00 0.00 90 1014.4
20260509061542 2 0 0.0 0.0 0.00 0.00 0.00 90 1014.5
20260509061026 2 0 0.0 0.0 0.00 0.00 0.00 90 1014.6
20260509060529 2 0 0.0 0.0 0.00 0.00 0.00 89 1014.6
20260509060057 2 0 0.0 0.0 0.00 0.00 0.00 89 1014.5
20260509055526 2 0 0.0 0.0 0.00 0.00 0.00 89 1014.6
20260509055033 2 0 0.0 0.0 0.00 0.00 0.00 89 1014.6
20260509054547 2 0 0.0 0.0 0.00 0.00 0.00 88 1014.4
20260509054026 2 0 0.0 0.0 0.00 0.00 0.00 88 1014.5
20260509053529 2 0 0.0 1.6 0.00 0.00 0.00 87 1014.5
20260509053040 2 0 0.0 1.6 0.00 0.00 0.00 88 1014.6
20260509052525 2 0 0.0 0.0 0.00 0.00 0.00 87 1014.4
20260509052027 2 0 0.0 0.0 0.00 0.00 0.00 87 1014.1
20260509051535 2 0 0.0 0.0 0.00 0.00 0.00 87 1014.0
20260509051026 3 152 0.0 0.0 0.00 0.00 0.00 86 1014.2
20260509050529 3 0 0.0 0.0 0.00 0.00 0.00 86 1014.3
20260509050042 3 0 0.0 0.0 0.00 0.00 0.00 85 1014.2
20260509045525 3 0 0.0 0.0 0.00 0.00 0.00 84 1014.1
20260509045026 3 0 0.0 0.0 0.00 0.00 0.00 84 1014.3
20260509044555 3 0 0.0 0.0 0.00 0.00 0.00 84 1014.1
20260509044029 4 0 0.0 0.0 0.00 0.00 0.00 84 1014.0
20260509043526 4 0 0.0 0.0 0.00 0.00 0.00 84 1014.2
20260509043038 4 0 0.0 0.0 0.00 0.00 0.00 84 1014.1
20260509042526 4 0 0.0 3.2 0.00 0.00 0.00 84 1014.2
20260509042026 4 0 0.0 3.2 0.00 0.00 0.00 84 1014.3
20260509041546 4 154 0.0 3.2 0.00 0.00 0.00 83 1014.1
20260509041025 4 0 0.0 1.6 0.00 0.00 0.00 85 1014.0
20260509040526 3 336 0.0 1.6 0.00 0.00 0.00 87 1014.1
20260509040104 3 0 0.0 0.0 0.00 0.00 0.00 87 1014.1
20260509035526 3 0 0.0 0.0 0.00 0.00 0.00 87 1014.0
20260509035029 3 0 0.0 0.0 0.00 0.00 0.00 87 1014.1
20260509034548 3 0 0.0 0.0 0.00 0.00 0.00 87 1014.0
20260509034029 3 0 0.0 0.0 0.00 0.00 0.00 87 1013.9
20260509033526 3 0 0.0 0.0 0.00 0.00 0.00 87 1013.8
20260509033045 3 0 0.0 0.0 0.00 0.00 0.00 86 1013.9
20260509032527 3 0 0.0 0.0 0.00 0.00 0.00 87 1013.9
20260509032026 3 0 0.0 0.0 0.00 0.00 0.00 86 1013.9
20260509031544 3 0 0.0 0.0 0.00 0.00 0.00 85 1014.0
20260509031026 3 0 0.0 0.0 0.00 0.00 0.00 84 1014.0
20260509030526 3 0 0.0 0.0 0.00 0.00 0.00 84 1014.0
20260509030038 3 0 0.0 0.0 0.00 0.00 0.00 84 1013.8
20260509025525 3 0 0.0 0.0 0.00 0.00 0.00 84 1013.8
20260509025026 3 0 0.0 0.0 0.00 0.00 0.00 83 1013.8
20260509024536 3 0 0.0 0.0 0.00 0.00 0.00 83 1013.7
20260509024029 3 0 0.0 0.0 0.00 0.00 0.00 83 1013.7
20260509023526 3 0 0.0 0.0 0.00 0.00 0.00 83 1013.6
20260509023044 4 0 0.0 1.6 0.00 0.00 0.00 83 1013.6
20260509022525 4 0 0.0 1.6 0.00 0.00 0.00 82 1013.6
20260509022026 4 0 0.0 0.0 0.00 0.00 0.00 82 1013.6
20260509021544 4 0 0.0 0.0 0.00 0.00 0.00 82 1013.8
20260509021032 5 0 0.0 0.0 0.00 0.00 0.00 81 1013.7
20260509020526 5 0 0.0 0.0 0.00 0.00 0.00 81 1013.5
20260509020042 5 0 0.0 0.0 0.00 0.00 0.00 80 1013.6
20260509015526 5 0 0.0 0.0 0.00 0.00 0.00 79 1013.6
20260509015027 5 0 0.0 0.0 0.00 0.00 0.00 79 1013.4
20260509014541 5 0 0.0 0.0 0.00 0.00 0.00 78 1013.4
20260509014029 5 0 0.0 1.6 0.00 0.00 0.00 77 1013.3
20260509013529 5 0 0.0 1.6 0.00 0.00 0.00 77 1013.2
20260509013044 5 0 0.0 1.6 0.00 0.00 0.00 76 1013.1
20260509012529 6 0 0.0 1.6 0.00 0.00 0.00 76 1013.2
20260509012029 6 0 0.0 1.6 0.00 0.00 0.00 75 1013.0
20260509011557 6 0 0.0 1.6 0.00 0.00 0.00 74 1012.9
20260509011028 6 0 0.0 1.6 0.00 0.00 0.00 74 1012.8
20260509010526 6 0 0.0 0.0 0.00 0.00 0.00 72 1012.6
20260509010048 6 0 0.0 0.0 0.00 0.00 0.00 72 1012.7
20260509005529 6 0 0.0 0.0 0.00 0.00 0.00 72 1012.6
20260509005028 6 0 0.0 0.0 0.00 0.00 0.00 70 1012.5
20260509004553 7 0 0.0 0.0 0.00 0.00 0.00 71 1012.4
20260509004028 7 0 0.0 0.0 0.00 0.00 0.00 71 1012.5
20260509003531 7 0 0.0 0.0 0.00 0.00 0.00 70 1012.3
20260509003043 7 0 0.0 0.0 0.00 0.00 0.00 70 1012.3
20260509002531 8 312 0.0 0.0 0.00 0.00 0.00 69 1012.2
20260509002028 8 0 0.0 0.0 0.00 0.00 0.00 69 1012.1
20260509001541 8 0 0.0 0.0 0.00 0.00 0.00 66 1012.2
20260509001029 8 0 0.0 6.4 0.00 0.00 0.00 66 1012.2
20260509000529 8 0 0.0 6.4 0.00 0.00 0.00 66 1011.9